User: anonymous
Location: Caltech
(34.1382°N, 118.1253°W)
Time: 00:30:35
(UTC-07:00)
Language:

FENGYUN 3A - Orbit

View from above orbital plane
View from above orbital plane
View from above satellite
View from above satellite

Ground track
Ground track

The orbit data is extracted from the following two-line orbital elements,

1 32958U 08026A   14105.81501161  .00000146  00000-0  89227-4 0  8966
2 32958 098.5620 166.7380 0010358 040.4932 319.7001 14.19436178304999
Epoch (UTC): 15 April 2014 19:33:37
Eccentricity: 0.0010358
inclination: 98.5620°
perigee height: 820 km
apogee height: 835 km
right ascension of ascending node: 166.7380°
argument of perigee: 40.4932°
revolutions per day: 14.19436178
mean anomaly at epoch: 319.7001°
orbit number at epoch: 30499

The dashed part of the orbit path shows where the satellite is in the earth's shadow,  

DLR